« Back
NWS Peachtree City, Ga » Text Product » GA Regional Weather Roundup


Printer-friendly Version
Current Version              Previous Versions:   1  2  3  4  5  6  7  8  9  

Regional Weather Roundup

006
ASUS42 KFFC 010603
RWRGA
WEATHER ROUNDUP FOR GEORGIA
NATIONAL WEATHER SERVICE PEACHTREE CITY GA
200 AM EDT WED OCT 01 2014

NOTE: "FAIR" INDICATES FEW OR NO CLOUDS BELOW 12,000 FEET WITH NO
SIGNIFICANT WEATHER AND/OR OBSTRUCTIONS TO VISIBILITY.

* = USE WITH CAUTION. THE STATIONS MARKED WITH AN ASTERISK MAY NOT
REPORT WEATHER SUCH AS PRECIPITATION, FOG, OR THUNDER AND ARE NOT
QUALITY CONTROLLED BY NWS.

THE REMARK "TC" DENOTES TEMPERATURE READING IN DEGREES CELSIUS.

GAZ001>058-010700-
NORTH GEORGIA

CITY           SKY/WX    TMP DP  RH WIND       PRES   REMARKS
ATLANTA        MOCLDY    67  64  90 CALM      29.94S
6HR MIN TEMP:  66; 6HR MAX TEMP:  79;

ATHENS         CLEAR     62  61  96 CALM      29.94S
6HR MIN TEMP:  62; 6HR MAX TEMP:  69;

CHAMBLEE       CLEAR     62  60  93 CALM      29.94S
6HR MIN TEMP:  62; 6HR MAX TEMP:  71;

PEACHTREE CITY PTCLDY    62  60  93 CALM      29.95S
6HR MIN TEMP:  61; 6HR MAX TEMP:  70;

ROME           CLEAR     60  58  92 CALM      29.93S
6HR MIN TEMP:  59; 6HR MAX TEMP:  71;

WEST ATLANTA   CLEAR     63  60  90 CALM      29.94S
6HR MIN TEMP:  62; 6HR MAX TEMP:  71;

GAINESVILLE    CLEAR     64  61  90 CALM      29.97S
6HR MIN TEMP:  63; 6HR MAX TEMP:  73;

CARTERSVILLE   CLEAR     57  56  96 CALM      29.94S
6HR MIN TEMP:  57; 6HR MAX TEMP:  66;



CITY           SKY/WX    TMP DP  RH WIND       PRES   REMARKS
DALTON*        PTCLDY    59  59 100 CALM      29.94S FOG
MARIETTA       CLEAR     63  62  97 CALM      29.94S
$$

GAZ059>098-102>109-010700-
CENTRAL GEORGIA

CITY           SKY/WX    TMP DP  RH WIND       PRES   REMARKS
AUGUSTA-BUSH   CLEAR     60  59  96 CALM      29.91S FOG
6HR MIN TEMP:  59; 6HR MAX TEMP:  72;

AUGUSTA-DANIEL CLEAR     69  65  86 CALM      29.92F
6HR MIN TEMP:  69; 6HR MAX TEMP:  77;

COLUMBUS       CLEAR     66  64  93 CALM      29.92S
6HR MIN TEMP:  65; 6HR MAX TEMP:  73;

MACON          CLEAR     61  61 100 CALM      29.93R
6HR MIN TEMP:  60; 6HR MAX TEMP:  69;

ROBINS AFB     CLEAR     63  63 100 N3        29.92S FOG


CITY           SKY/WX    TMP DP  RH WIND       PRES   REMARKS
LAGRANGE*      PTCLDY    64  64  99 CALM      29.94S
SYLVANIA*      CLEAR     67  66  98 CALM      29.92S
MILLEDGEVILLE* CLEAR     63  63 100 CALM      29.93S
$$

GAZ099>101-110>166-010700-
SOUTH GEORGIA

CITY           SKY/WX    TMP DP  RH WIND       PRES   REMARKS
SAVANNAH       CLEAR     67  64  90 CALM      29.90S
6HR MIN TEMP:  67; 6HR MAX TEMP:  76;

VALDOSTA       CLOUDY    70  68  93 CALM      29.90S
6HR MIN TEMP:  69; 6HR MAX TEMP:  74;

ALMA           CLEAR     67  66  97 CALM      29.91R
6HR MIN TEMP:  66; 6HR MAX TEMP:  75;

ST SIMONS      CLEAR     67  65  93 CALM      29.90S
6HR MIN TEMP:  67; 6HR MAX TEMP:  73;

FT STEWART     CLEAR     65  64  96 CALM      29.89S
ALBANY         CLEAR     67  65  93 CALM      29.93S
HUNTER AFB     CLEAR     65  65 100 W2        29.88S
MOODY AFB      PTCLDY    68  67  95 N3        29.90S
BRUNSWICK        N/A     66  64  94 CALM      29.91R


CITY           SKY/WX    TMP DP  RH WIND       PRES   REMARKS
BAINBRIDGE*    CLEAR     70  68  94 CALM      29.90F
MOULTRIE*      CLEAR     68  68 100 CALM      29.92S
VIDALIA*       CLEAR     66  64  94 N3        29.92S
WAYCROSS*      CLEAR     71  71 100 CALM      29.91R
DOUGLAS*       CLEAR     70  68  94 CALM      29.93R
$$



USA.gov is the U.S. government's official web portal to all federal, state and local government web resources and services.